sat.trackr.live / text

‹ back to catalog

STARLINK-2586

NORAD 48390 · 2021-038AP

PAYLOAD ACTIVE UNKNOWN

§ Identity

Operator
Country
US
Launch date
2021-05-04
Launch site
AFETR
Launch vehicle
Mass (kg)
RCS (m²)

Purposes: comms

External: N2YO · Heavens-Above · Gunter

§ Orbital elements

Epoch: 2026-09-09T02:45:52.701120Z

Period
94.01 min
Inclination
53.1568°
Eccentricity
0.0002072
Mean motion
15.31707177 rev/d
Perigee alt
469.3 km
Apogee alt
472.1 km
Semi-major
6,848.9 km
B*
-1.3091e-5
RAAN
199.0466°
Arg perigee
91.9112°
Mean anomaly
268.2127°
Rev number
29,676

§ Raw data

STARLINK-25861 48390U 21038AP  26252.11519330 -.00000772  00000+0 -13091-4 0  99932 48390  53.1568 199.0466 0002072  91.9112 268.2127 15.31707177296760

JSON: /api/v1/satellites/48390 · /tle

For live sub-satellite position, see the globe view (requires WebGL).

§ Visibility from observer

Set your observer location to see the next 7 days of passes ≥ 10°. The values pass through the URL so the page stays shareable.

No JS? Fill the form by hand. The geolocation button needs JavaScript.